| time (UTC) | temp F | wind direction | speed MPH | gust MPH | rain 1hr in | rain 24hr in | rain mn in | humidity % | barometer mb |
| 20260509005542 | 53 | 313 | 3.0 | 5.0 | 0.00 | 0.00 | 0.00 | 75 | 1011.7 |
| 20260509005040 | 54 | 306 | 2.0 | 5.0 | 0.00 | 0.00 | 0.00 | 74 | 1011.6 |
| 20260509004553 | 54 | 0 | 0.0 | 3.0 | 0.00 | 0.00 | 0.00 | 69 | 1011.7 |
| 20260509004039 | 55 | 0 | 0.0 | 3.0 | 0.00 | 0.00 | 0.00 | 69 | 1011.7 |
| 20260509003541 | 55 | 282 | 2.0 | 3.0 | 0.00 | 0.00 | 0.00 | 67 | 1011.9 |
| 20260509003052 | 54 | 284 | 1.0 | 3.0 | 0.00 | 0.00 | 0.00 | 68 | 1011.8 |
| 20260509002541 | 54 | 0 | 0.0 | 0.0 | 0.00 | 0.00 | 0.00 | 68 | 1011.8 |
| 20260509002041 | 54 | 0 | 0.0 | 0.0 | 0.00 | 0.00 | 0.00 | 69 | 1011.8 |
| 20260509001551 | 54 | 0 | 0.0 | 2.0 | 0.00 | 0.00 | 0.00 | 69 | 1011.6 |
| 20260509001041 | 55 | 0 | 0.0 | 3.0 | 0.00 | 0.00 | 0.00 | 67 | 1011.6 |
| 20260509000542 | 56 | 284 | 1.0 | 3.0 | 0.00 | 0.00 | 0.00 | 66 | 1011.6 |
| 20260509000049 | 58 | 284 | 0.0 | 3.0 | 0.00 | 0.00 | 0.00 | 64 | 1011.6 |
| 20260508235542 | 59 | 0 | 0.0 | 2.0 | 0.00 | 0.00 | 0.00 | 61 | 1011.6 |
| 20260508235040 | 60 | 0 | 0.0 | 2.0 | 0.00 | 0.00 | 0.00 | 57 | 1011.6 |
| 20260508234547 | 61 | 281 | 0.0 | 3.0 | 0.00 | 0.00 | 0.00 | 55 | 1011.4 |
| 20260508234042 | 61 | 0 | 0.0 | 3.0 | 0.00 | 0.00 | 0.00 | 52 | 1011.3 |
| 20260508233541 | 62 | 0 | 0.0 | 7.0 | 0.00 | 0.00 | 0.00 | 50 | 1011.3 |
| 20260508233102 | 62 | 281 | 2.0 | 7.0 | 0.00 | 0.00 | 0.00 | 50 | 1011.2 |
| 20260508232541 | 62 | 286 | 1.0 | 9.0 | 0.00 | 0.00 | 0.00 | 49 | 1011.2 |
| 20260508232042 | 62 | 281 | 3.0 | 10.0 | 0.00 | 0.00 | 0.00 | 50 | 1011.0 |
| 20260508231633 | 62 | 254 | 2.0 | 12.0 | 0.00 | 0.00 | 0.00 | 50 | 1011.0 |
| 20260508231041 | 62 | 290 | 2.0 | 12.0 | 0.00 | 0.00 | 0.00 | 50 | 1011.0 |
| 20260508230541 | 62 | 290 | 4.0 | 12.0 | 0.00 | 0.00 | 0.00 | 49 | 1010.9 |
| 20260508230100 | 62 | 270 | 4.0 | 8.0 | 0.00 | 0.00 | 0.00 | 49 | 1010.8 |
| 20260508225542 | 62 | 264 | 2.0 | 12.0 | 0.00 | 0.00 | 0.00 | 48 | 1010.9 |
| 20260508225108 | 62 | 279 | 7.0 | 13.0 | 0.00 | 0.00 | 0.00 | 49 | 1011.0 |
| 20260508224559 | 62 | 279 | 5.0 | 13.0 | 0.00 | 0.00 | 0.00 | 48 | 1011.0 |
| 20260508224041 | 62 | 306 | 4.0 | 15.0 | 0.00 | 0.00 | 0.00 | 48 | 1011.1 |
| 20260508223541 | 63 | 292 | 4.0 | 15.0 | 0.00 | 0.00 | 0.00 | 48 | 1011.1 |
| 20260508223054 | 63 | 271 | 5.0 | 10.0 | 0.00 | 0.00 | 0.00 | 46 | 1011.1 |
| 20260508222540 | 63 | 258 | 5.0 | 13.0 | 0.00 | 0.00 | 0.00 | 47 | 1011.1 |
| 20260508222041 | 63 | 257 | 3.0 | 13.0 | 0.00 | 0.00 | 0.00 | 48 | 1011.0 |
| 20260508221605 | 63 | 223 | 4.0 | 16.0 | 0.00 | 0.00 | 0.00 | 47 | 1011.0 |
| 20260508221041 | 63 | 261 | 7.0 | 16.0 | 0.00 | 0.00 | 0.00 | 47 | 1011.0 |
| 20260508220541 | 63 | 255 | 4.0 | 12.0 | 0.00 | 0.00 | 0.00 | 48 | 1010.9 |
| 20260508220053 | 63 | 319 | 4.0 | 12.0 | 0.00 | 0.00 | 0.00 | 48 | 1010.9 |
| 20260508215540 | 64 | 215 | 3.0 | 10.0 | 0.00 | 0.00 | 0.00 | 47 | 1010.8 |
| 20260508215041 | 64 | 228 | 4.0 | 12.0 | 0.00 | 0.00 | 0.00 | 46 | 1010.8 |
| 20260508214634 | 64 | 221 | 5.0 | 12.0 | 0.00 | 0.00 | 0.00 | 46 | 1010.9 |
| 20260508214045 | 64 | 244 | 5.0 | 12.0 | 0.00 | 0.00 | 0.00 | 46 | 1010.8 |
| 20260508213541 | 64 | 252 | 5.0 | 14.0 | 0.00 | 0.00 | 0.00 | 44 | 1010.8 |
| 20260508213051 | 64 | 252 | 6.0 | 14.0 | 0.00 | 0.00 | 0.00 | 44 | 1010.9 |
| 20260508212541 | 64 | 284 | 6.0 | 14.0 | 0.00 | 0.00 | 0.00 | 44 | 1010.8 |
| 20260508212046 | 64 | 215 | 6.0 | 13.0 | 0.00 | 0.00 | 0.00 | 43 | 1010.8 |
| 20260508211552 | 64 | 270 | 4.0 | 15.0 | 0.00 | 0.00 | 0.00 | 45 | 1010.8 |
| 20260508211041 | 64 | 274 | 5.0 | 15.0 | 0.00 | 0.00 | 0.00 | 44 | 1010.8 |
| 20260508210541 | 64 | 241 | 7.0 | 15.0 | 0.00 | 0.00 | 0.00 | 43 | 1010.8 |
| 20260508210054 | 64 | 257 | 8.0 | 15.0 | 0.00 | 0.00 | 0.00 | 42 | 1010.8 |
| 20260508205540 | 64 | 215 | 5.0 | 16.0 | 0.00 | 0.00 | 0.00 | 43 | 1010.8 |
| 20260508205041 | 64 | 273 | 5.0 | 16.0 | 0.00 | 0.00 | 0.00 | 42 | 1010.7 |
| 20260508204551 | 64 | 221 | 6.0 | 19.0 | 0.00 | 0.00 | 0.00 | 43 | 1010.8 |
| 20260508204041 | 65 | 290 | 9.0 | 19.0 | 0.00 | 0.00 | 0.00 | 40 | 1010.9 |
| 20260508203544 | 65 | 267 | 4.0 | 18.0 | 0.00 | 0.00 | 0.00 | 44 | 1010.9 |
| 20260508203110 | 65 | 263 | 5.0 | 19.0 | 0.00 | 0.00 | 0.00 | 44 | 1010.7 |
| 20260508202539 | 65 | 266 | 5.0 | 19.0 | 0.00 | 0.00 | 0.00 | 42 | 1010.9 |
| 20260508202038 | 65 | 240 | 5.0 | 19.0 | 0.00 | 0.00 | 0.00 | 44 | 1010.8 |
| 20260508201552 | 65 | 211 | 11.0 | 19.0 | 0.00 | 0.00 | 0.00 | 42 | 1010.8 |
| 20260508201041 | 66 | 255 | 4.0 | 17.0 | 0.00 | 0.00 | 0.00 | 45 | 1010.9 |
| 20260508200542 | 65 | 253 | 5.0 | 19.0 | 0.00 | 0.00 | 0.00 | 44 | 1010.8 |
| 20260508200053 | 64 | 238 | 5.0 | 19.0 | 0.00 | 0.00 | 0.00 | 43 | 1010.9 |
| 20260508195538 | 65 | 222 | 7.0 | 19.0 | 0.00 | 0.00 | 0.00 | 40 | 1010.9 |
| 20260508195039 | 65 | 225 | 6.0 | 12.0 | 0.00 | 0.00 | 0.00 | 40 | 1011.0 |
| 20260508194553 | 65 | 271 | 5.0 | 12.0 | 0.00 | 0.00 | 0.00 | 43 | 1010.9 |
| 20260508194039 | 64 | 259 | 4.0 | 17.0 | 0.00 | 0.00 | 0.00 | 41 | 1010.8 |
| 20260508193542 | 64 | 234 | 7.0 | 17.0 | 0.00 | 0.00 | 0.00 | 41 | 1011.1 |
| 20260508193123 | 65 | 235 | 7.0 | 19.0 | 0.00 | 0.00 | 0.00 | 40 | 1011.1 |
| 20260508192539 | 65 | 257 | 6.0 | 21.0 | 0.00 | 0.00 | 0.00 | 44 | 1011.1 |
| 20260508192039 | 66 | 269 | 7.0 | 21.0 | 0.00 | 0.00 | 0.00 | 41 | 1011.1 |
| 20260508191549 | 67 | 287 | 6.0 | 19.0 | 0.00 | 0.00 | 0.00 | 43 | 1011.0 |
| 20260508191037 | 66 | 248 | 7.0 | 19.0 | 0.00 | 0.00 | 0.00 | 39 | 1011.1 |
| 20260508190538 | 66 | 244 | 11.0 | 19.0 | 0.00 | 0.00 | 0.00 | 39 | 1011.3 |
| 20260508190052 | 66 | 172 | 5.0 | 15.0 | 0.00 | 0.00 | 0.00 | 43 | 1011.3 |
| 20260508185541 | 66 | 204 | 6.0 | 15.0 | 0.00 | 0.00 | 0.00 | 43 | 1011.4 |
| 20260508185041 | 66 | 269 | 7.0 | 15.0 | 0.00 | 0.00 | 0.00 | 41 | 1011.4 |
| 20260508184553 | 66 | 190 | 8.0 | 16.0 | 0.00 | 0.00 | 0.00 | 41 | 1011.5 |
| 20260508184038 | 65 | 235 | 5.0 | 16.0 | 0.00 | 0.00 | 0.00 | 44 | 1011.6 |
| 20260508183541 | 65 | 224 | 6.0 | 19.0 | 0.00 | 0.00 | 0.00 | 47 | 1011.7 |
| 20260508183052 | 65 | 211 | 7.0 | 19.0 | 0.00 | 0.00 | 0.00 | 42 | 1011.7 |
| 20260508182538 | 65 | 173 | 6.0 | 19.0 | 0.00 | 0.00 | 0.00 | 48 | 1011.8 |
| 20260508182041 | 64 | 219 | 5.0 | 18.0 | 0.00 | 0.00 | 0.00 | 49 | 1011.8 |
| 20260508181553 | 63 | 236 | 4.0 | 18.0 | 0.00 | 0.00 | 0.00 | 46 | 1011.9 |
| 20260508181038 | 64 | 210 | 9.0 | 27.0 | 0.00 | 0.00 | 0.00 | 45 | 1011.9 |
| 20260508180539 | 64 | 257 | 8.0 | 27.0 | 0.00 | 0.00 | 0.00 | 44 | 1011.9 |
| 20260508180105 | 64 | 213 | 9.0 | 27.0 | 0.00 | 0.00 | 0.00 | 45 | 1012.0 |
| 20260508175538 | 64 | 165 | 9.0 | 22.0 | 0.00 | 0.00 | 0.00 | 47 | 1012.0 |
| 20260508175039 | 64 | 223 | 9.0 | 21.0 | 0.00 | 0.00 | 0.00 | 44 | 1012.1 |
| 20260508174557 | 64 | 243 | 5.0 | 12.0 | 0.00 | 0.00 | 0.00 | 47 | 1012.2 |
| 20260508174038 | 64 | 217 | 5.0 | 16.0 | 0.00 | 0.00 | 0.00 | 46 | 1012.3 |
| 20260508173542 | 63 | 188 | 6.0 | 19.0 | 0.00 | 0.00 | 0.00 | 48 | 1012.3 |
| 20260508173050 | 63 | 212 | 9.0 | 21.0 | 0.00 | 0.00 | 0.00 | 51 | 1012.4 |
| 20260508172538 | 63 | 184 | 10.0 | 21.0 | 0.00 | 0.00 | 0.00 | 46 | 1012.3 |
| 20260508172041 | 63 | 227 | 10.0 | 21.0 | 0.00 | 0.00 | 0.00 | 44 | 1012.4 |
| 20260508171551 | 63 | 232 | 5.0 | 19.0 | 0.00 | 0.00 | 0.00 | 51 | 1012.5 |
| 20260508171040 | 62 | 270 | 10.0 | 19.0 | 0.00 | 0.00 | 0.00 | 49 | 1012.5 |
| 20260508170539 | 62 | 257 | 8.0 | 17.0 | 0.00 | 0.00 | 0.00 | 48 | 1012.5 |
| 20260508170049 | 61 | 292 | 7.0 | 18.0 | 0.00 | 0.00 | 0.00 | 52 | 1012.6 |
| 20260508165540 | 61 | 289 | 8.0 | 23.0 | 0.00 | 0.00 | 0.00 | 50 | 1012.8 |
| 20260508165042 | 60 | 269 | 9.0 | 23.0 | 0.00 | 0.00 | 0.00 | 46 | 1012.8 |
| 20260508164600 | 60 | 275 | 10.0 | 23.0 | 0.00 | 0.00 | 0.00 | 47 | 1013.0 |
| 20260508164038 | 60 | 242 | 5.0 | 19.0 | 0.00 | 0.00 | 0.00 | 51 | 1013.1 |
| 20260508163537 | 60 | 227 | 5.0 | 19.0 | 0.00 | 0.00 | 0.00 | 49 | 1013.1 |
| 20260508163053 | 60 | 278 | 10.0 | 19.0 | 0.00 | 0.00 | 0.00 | 47 | 1013.0 |
| 20260508162538 | 60 | 258 | 9.0 | 19.0 | 0.00 | 0.00 | 0.00 | 47 | 1013.1 |
| 20260508162038 | 60 | 279 | 9.0 | 21.0 | 0.00 | 0.00 | 0.00 | 47 | 1013.0 |
| 20260508161553 | 61 | 225 | 9.0 | 21.0 | 0.00 | 0.00 | 0.00 | 46 | 1012.9 |
| 20260508161040 | 61 | 258 | 11.0 | 20.0 | 0.00 | 0.00 | 0.00 | 48 | 1013.1 |
| 20260508160545 | 62 | 259 | 6.0 | 14.0 | 0.00 | 0.00 | 0.00 | 49 | 1012.9 |
| 20260508160052 | 61 | 238 | 4.0 | 13.0 | 0.00 | 0.00 | 0.00 | 51 | 1013.0 |
| 20260508155538 | 61 | 288 | 8.0 | 12.0 | 0.00 | 0.00 | 0.00 | 47 | 1013.1 |
| 20260508155038 | 61 | 257 | 5.0 | 19.0 | 0.00 | 0.00 | 0.00 | 46 | 1013.1 |
| 20260508154551 | 61 | 220 | 4.0 | 19.0 | 0.00 | 0.00 | 0.00 | 49 | 1013.3 |
| 20260508154038 | 61 | 206 | 8.0 | 21.0 | 0.00 | 0.00 | 0.00 | 53 | 1013.5 |
| 20260508153538 | 60 | 266 | 8.0 | 21.0 | 0.00 | 0.00 | 0.00 | 49 | 1013.5 |
| 20260508153047 | 60 | 239 | 7.0 | 16.0 | 0.00 | 0.00 | 0.00 | 48 | 1013.3 |
| 20260508152537 | 60 | 231 | 8.0 | 16.0 | 0.00 | 0.00 | 0.00 | 51 | 1013.5 |
| 20260508152041 | 60 | 242 | 6.0 | 19.0 | 0.00 | 0.00 | 0.00 | 51 | 1013.4 |
| 20260508151545 | 60 | 250 | 6.0 | 19.0 | 0.00 | 0.00 | 0.00 | 48 | 1013.4 |
| 20260508151041 | 60 | 219 | 9.0 | 18.0 | 0.00 | 0.00 | 0.00 | 48 | 1013.4 |
| 20260508150537 | 60 | 213 | 4.0 | 20.0 | 0.00 | 0.00 | 0.00 | 50 | 1013.5 |
| 20260508150049 | 59 | 189 | 10.0 | 20.0 | 0.00 | 0.00 | 0.00 | 49 | 1013.7 |
| 20260508145542 | 59 | 227 | 10.0 | 20.0 | 0.00 | 0.00 | 0.00 | 48 | 1013.6 |
| 20260508145041 | 59 | 290 | 8.0 | 25.0 | 0.00 | 0.00 | 0.00 | 53 | 1013.6 |
| 20260508144550 | 59 | 279 | 10.0 | 25.0 | 0.00 | 0.00 | 0.00 | 50 | 1013.6 |
| 20260508144041 | 59 | 269 | 8.0 | 23.0 | 0.00 | 0.00 | 0.00 | 49 | 1013.6 |
| 20260508143538 | 59 | 191 | 5.0 | 14.0 | 0.00 | 0.00 | 0.00 | 56 | 1013.9 |
| 20260508143055 | 59 | 217 | 5.0 | 10.0 | 0.00 | 0.00 | 0.00 | 54 | 1013.6 |
| 20260508142538 | 58 | 208 | 4.0 | 13.0 | 0.00 | 0.00 | 0.00 | 56 | 1013.8 |
| 20260508142038 | 58 | 10 | 3.0 | 13.0 | 0.00 | 0.00 | 0.00 | 54 | 1013.8 |
| 20260508141550 | 58 | 168 | 6.0 | 16.0 | 0.00 | 0.00 | 0.00 | 54 | 1013.8 |
| 20260508141037 | 57 | 197 | 6.0 | 17.0 | 0.00 | 0.00 | 0.00 | 57 | 1013.9 |
| 20260508140539 | 57 | 198 | 7.0 | 17.0 | 0.00 | 0.00 | 0.00 | 57 | 1013.8 |
| 20260508140049 | 57 | 230 | 4.0 | 12.0 | 0.00 | 0.00 | 0.00 | 54 | 1013.9 |
| 20260508135538 | 56 | 202 | 4.0 | 11.0 | 0.00 | 0.00 | 0.00 | 54 | 1013.9 |
| 20260508135038 | 56 | 212 | 4.0 | 13.0 | 0.00 | 0.00 | 0.00 | 56 | 1013.9 |
| 20260508134546 | 56 | 171 | 7.0 | 13.0 | 0.00 | 0.00 | 0.00 | 54 | 1013.9 |
| 20260508134037 | 56 | 178 | 5.0 | 16.0 | 0.00 | 0.00 | 0.00 | 56 | 1014.0 |
| 20260508133542 | 55 | 182 | 7.0 | 16.0 | 0.00 | 0.00 | 0.00 | 56 | 1014.0 |
| 20260508133050 | 55 | 159 | 7.0 | 12.0 | 0.00 | 0.00 | 0.00 | 59 | 1014.0 |
| 20260508132538 | 54 | 141 | 5.0 | 10.0 | 0.00 | 0.00 | 0.00 | 64 | 1014.2 |
| 20260508132041 | 53 | 139 | 3.0 | 10.0 | 0.00 | 0.00 | 0.00 | 65 | 1014.3 |
| 20260508131549 | 53 | 129 | 4.0 | 10.0 | 0.00 | 0.00 | 0.00 | 64 | 1014.4 |
| 20260508131038 | 53 | 130 | 6.0 | 10.0 | 0.00 | 0.00 | 0.00 | 65 | 1014.4 |
| 20260508130541 | 53 | 110 | 3.0 | 7.0 | 0.00 | 0.00 | 0.00 | 65 | 1014.5 |
| 20260508130055 | 52 | 119 | 2.0 | 7.0 | 0.00 | 0.00 | 0.00 | 67 | 1014.5 |
| 20260508125542 | 51 | 194 | 1.0 | 7.0 | 0.00 | 0.00 | 0.00 | 67 | 1014.5 |
| 20260508125038 | 50 | 156 | 2.0 | 6.0 | 0.00 | 0.00 | 0.00 | 66 | 1014.6 |
| 20260508124559 | 49 | 197 | 2.0 | 7.0 | 0.00 | 0.00 | 0.00 | 66 | 1014.6 |
| 20260508124041 | 49 | 200 | 1.0 | 8.0 | 0.00 | 0.00 | 0.00 | 67 | 1014.6 |
| 20260508123542 | 49 | 198 | 1.0 | 8.0 | 0.00 | 0.00 | 0.00 | 67 | 1014.6 |
| 20260508123057 | 48 | 202 | 2.0 | 8.0 | 0.00 | 0.00 | 0.00 | 67 | 1014.6 |
| 20260508122541 | 48 | 186 | 2.0 | 6.0 | 0.00 | 0.00 | 0.00 | 71 | 1014.7 |
| 20260508122041 | 48 | 171 | 2.0 | 7.0 | 0.00 | 0.00 | 0.00 | 72 | 1014.7 |
| 20260508121551 | 47 | 168 | 3.0 | 7.0 | 0.00 | 0.00 | 0.00 | 73 | 1014.6 |
| 20260508121042 | 47 | 0 | 1.0 | 5.0 | 0.00 | 0.00 | 0.00 | 74 | 1014.5 |
| 20260508120540 | 47 | 148 | 2.0 | 5.0 | 0.00 | 0.00 | 0.00 | 73 | 1014.4 |
| 20260508120055 | 47 | 159 | 1.0 | 6.0 | 0.00 | 0.00 | 0.00 | 74 | 1014.3 |
| 20260508115542 | 47 | 158 | 2.0 | 6.0 | 0.00 | 0.00 | 0.00 | 74 | 1014.2 |
| 20260508115041 | 46 | 163 | 2.0 | 5.0 | 0.00 | 0.00 | 0.00 | 74 | 1014.2 |
| 20260508114605 | 46 | 159 | 1.0 | 5.0 | 0.00 | 0.00 | 0.00 | 78 | 1014.1 |
| 20260508114041 | 45 | 159 | 1.0 | 5.0 | 0.00 | 0.00 | 0.00 | 78 | 1014.2 |
| 20260508113541 | 44 | 156 | 3.0 | 5.0 | 0.00 | 0.00 | 0.00 | 81 | 1014.0 |
| 20260508113046 | 43 | 134 | 0.0 | 3.0 | 0.00 | 0.00 | 0.00 | 86 | 1014.0 |
| 20260508112543 | 42 | 67 | 1.0 | 3.0 | 0.00 | 0.00 | 0.00 | 87 | 1013.9 |
| 20260508112040 | 41 | 0 | 0.0 | 1.0 | 0.00 | 0.00 | 0.00 | 87 | 1013.9 |
| 20260508111602 | 40 | 0 | 0.0 | 2.0 | 0.00 | 0.00 | 0.00 | 88 | 1013.8 |
| 20260508111042 | 39 | 0 | 0.0 | 3.0 | 0.00 | 0.00 | 0.00 | 88 | 1013.8 |
| 20260508110541 | 39 | 343 | 1.0 | 3.0 | 0.00 | 0.00 | 0.00 | 88 | 1013.8 |
| 20260508110057 | 38 | 343 | 0.0 | 2.0 | 0.00 | 0.00 | 0.00 | 87 | 1013.8 |
| 20260508105540 | 38 | 0 | 0.0 | 0.0 | 0.00 | 0.00 | 0.00 | 87 | 1013.9 |
| 20260508105038 | 38 | 0 | 0.0 | 0.0 | 0.00 | 0.00 | 0.00 | 88 | 1013.8 |
| 20260508104551 | 37 | 0 | 0.0 | 0.0 | 0.00 | 0.00 | 0.00 | 89 | 1013.7 |
| 20260508104041 | 37 | 0 | 0.0 | 0.0 | 0.00 | 0.00 | 0.00 | 89 | 1013.6 |
| 20260508103543 | 36 | 0 | 0.0 | 0.0 | 0.00 | 0.00 | 0.00 | 89 | 1013.6 |
| 20260508103047 | 36 | 0 | 0.0 | 0.0 | 0.00 | 0.00 | 0.00 | 88 | 1013.5 |
| 20260508102541 | 36 | 0 | 0.0 | 0.0 | 0.00 | 0.00 | 0.00 | 89 | 1013.6 |
| 20260508102041 | 36 | 0 | 0.0 | 0.0 | 0.00 | 0.00 | 0.00 | 89 | 1013.7 |
| 20260508101554 | 35 | 0 | 0.0 | 3.0 | 0.00 | 0.00 | 0.00 | 89 | 1013.7 |
| 20260508101040 | 35 | 0 | 0.0 | 3.0 | 0.00 | 0.00 | 0.00 | 88 | 1013.6 |
| 20260508100543 | 35 | 343 | 0.0 | 0.0 | 0.00 | 0.00 | 0.00 | 88 | 1013.6 |
| 20260508100052 | 35 | 0 | 0.0 | 0.0 | 0.00 | 0.00 | 0.00 | 89 | 1013.6 |
| 20260508095544 | 35 | 0 | 0.0 | 0.0 | 0.00 | 0.00 | 0.00 | 88 | 1013.4 |
| 20260508095041 | 35 | 0 | 0.0 | 0.0 | 0.00 | 0.00 | 0.00 | 87 | 1013.3 |
| 20260508094555 | 35 | 0 | 0.0 | 0.0 | 0.00 | 0.00 | 0.00 | 87 | 1013.3 |
| 20260508094041 | 35 | 0 | 0.0 | 0.0 | 0.00 | 0.00 | 0.00 | 88 | 1013.4 |
| 20260508093541 | 36 | 0 | 0.0 | 0.0 | 0.00 | 0.00 | 0.00 | 88 | 1013.3 |
| 20260508093056 | 36 | 0 | 0.0 | 0.0 | 0.00 | 0.00 | 0.00 | 88 | 1013.4 |
| 20260508092542 | 35 | 0 | 0.0 | 0.0 | 0.00 | 0.00 | 0.00 | 87 | 1013.3 |
| 20260508092042 | 36 | 0 | 0.0 | 0.0 | 0.00 | 0.00 | 0.00 | 86 | 1013.2 |
| 20260508091603 | 36 | 0 | 0.0 | 0.0 | 0.00 | 0.00 | 0.00 | 87 | 1013.3 |
| 20260508091041 | 36 | 0 | 0.0 | 0.0 | 0.00 | 0.00 | 0.00 | 86 | 1013.3 |
| 20260508090541 | 36 | 0 | 0.0 | 0.0 | 0.00 | 0.00 | 0.00 | 86 | 1013.4 |
| 20260508090047 | 36 | 0 | 0.0 | 0.0 | 0.00 | 0.00 | 0.00 | 85 | 1013.4 |
| 20260508085541 | 37 | 0 | 0.0 | 0.0 | 0.00 | 0.00 | 0.00 | 85 | 1013.4 |
| 20260508085041 | 37 | 0 | 0.0 | 0.0 | 0.00 | 0.00 | 0.00 | 85 | 1013.4 |
| 20260508084553 | 37 | 0 | 0.0 | 0.0 | 0.00 | 0.00 | 0.00 | 85 | 1013.3 |
| 20260508084042 | 37 | 0 | 0.0 | 0.0 | 0.00 | 0.00 | 0.00 | 84 | 1013.3 |
| 20260508083541 | 37 | 0 | 0.0 | 0.0 | 0.00 | 0.00 | 0.00 | 84 | 1013.2 |
| 20260508083102 | 38 | 0 | 0.0 | 0.0 | 0.00 | 0.00 | 0.00 | 84 | 1013.2 |
| 20260508082541 | 38 | 0 | 0.0 | 2.0 | 0.00 | 0.00 | 0.00 | 84 | 1013.0 |
| 20260508082041 | 38 | 0 | 0.0 | 2.0 | 0.00 | 0.00 | 0.00 | 83 | 1013.0 |
| 20260508081548 | 38 | 342 | 1.0 | 2.0 | 0.00 | 0.00 | 0.00 | 81 | 1013.0 |
| 20260508081043 | 38 | 342 | 0.0 | 2.0 | 0.00 | 0.00 | 0.00 | 81 | 1012.9 |
| 20260508080541 | 38 | 0 | 0.0 | 2.0 | 0.00 | 0.00 | 0.00 | 80 | 1012.9 |
| 20260508075541 | 39 | 342 | 1.0 | 3.0 | 0.00 | 0.00 | 0.00 | 80 | 1012.9 |
| 20260508075040 | 39 | 342 | 2.0 | 3.0 | 0.00 | 0.00 | 0.00 | 80 | 1012.9 |
| 20260508074558 | 39 | 0 | 0.0 | 1.0 | 0.00 | 0.00 | 0.00 | 80 | 1012.8 |
| 20260508074038 | 39 | 0 | 0.0 | 3.0 | 0.00 | 0.00 | 0.00 | 80 | 1012.9 |
| 20260508073537 | 39 | 0 | 0.0 | 3.0 | 0.00 | 0.00 | 0.00 | 81 | 1012.8 |
| 20260508073052 | 39 | 342 | 2.0 | 3.0 | 0.00 | 0.00 | 0.00 | 81 | 1012.8 |
| 20260508072540 | 39 | 342 | 2.0 | 3.0 | 0.00 | 0.00 | 0.00 | 81 | 1012.8 |
| 20260508072040 | 39 | 342 | 2.0 | 3.0 | 0.00 | 0.00 | 0.00 | 81 | 1012.8 |
| 20260508071551 | 39 | 342 | 2.0 | 4.0 | 0.00 | 0.00 | 0.00 | 82 | 1012.8 |
| 20260508071041 | 39 | 342 | 2.0 | 4.0 | 0.00 | 0.00 | 0.00 | 82 | 1012.7 |
| 20260508070541 | 39 | 342 | 2.0 | 4.0 | 0.00 | 0.00 | 0.00 | 81 | 1012.8 |
| 20260508070049 | 40 | 342 | 3.0 | 4.0 | 0.00 | 0.00 | 0.00 | 81 | 1012.8 |
| 20260508065540 | 40 | 342 | 3.0 | 4.0 | 0.00 | 0.00 | 0.00 | 80 | 1012.8 |
| 20260508065041 | 41 | 342 | 3.0 | 4.0 | 0.00 | 0.00 | 0.00 | 78 | 1012.8 |
| 20260508064555 | 41 | 342 | 2.0 | 4.0 | 0.00 | 0.00 | 0.00 | 78 | 1012.9 |
| 20260508064041 | 42 | 343 | 2.0 | 4.0 | 0.00 | 0.00 | 0.00 | 76 | 1012.9 |
| 20260508063540 | 43 | 343 | 0.0 | 3.0 | 0.00 | 0.00 | 0.00 | 78 | 1012.9 |
| 20260508063049 | 43 | 0 | 0.0 | 3.0 | 0.00 | 0.00 | 0.00 | 75 | 1012.9 |
| 20260508062540 | 44 | 343 | 1.0 | 3.0 | 0.00 | 0.00 | 0.00 | 73 | 1012.9 |
| 20260508062040 | 44 | 343 | 1.0 | 3.0 | 0.00 | 0.00 | 0.00 | 71 | 1012.8 |
| 20260508061554 | 45 | 342 | 2.0 | 8.0 | 0.00 | 0.00 | 0.00 | 69 | 1012.9 |
| 20260508061042 | 45 | 342 | 1.0 | 8.0 | 0.00 | 0.00 | 0.00 | 69 | 1012.8 |
| 20260508060540 | 46 | 0 | 1.0 | 4.0 | 0.00 | 0.00 | 0.00 | 67 | 1012.8 |
| 20260508060052 | 47 | 0 | 0.0 | 4.0 | 0.00 | 0.00 | 0.00 | 66 | 1012.7 |
| 20260508055541 | 47 | 339 | 0.0 | 4.0 | 0.00 | 0.00 | 0.00 | 67 | 1012.7 |
| 20260508055041 | 48 | 339 | 1.0 | 6.0 | 0.00 | 0.00 | 0.00 | 67 | 1012.6 |
| 20260508054549 | 48 | 339 | 1.0 | 9.0 | 0.00 | 0.00 | 0.00 | 66 | 1012.5 |
| 20260508054040 | 48 | 350 | 4.0 | 9.0 | 0.00 | 0.00 | 0.00 | 64 | 1012.5 |
| 20260508053541 | 47 | 315 | 5.0 | 9.0 | 0.00 | 0.00 | 0.00 | 64 | 1012.5 |
| 20260508053056 | 48 | 5 | 2.0 | 5.0 | 0.00 | 0.00 | 0.00 | 66 | 1012.6 |
| 20260508052537 | 48 | 350 | 2.0 | 5.0 | 0.00 | 0.00 | 0.00 | 65 | 1012.5 |
| 20260508052041 | 48 | 331 | 3.0 | 7.0 | 0.00 | 0.00 | 0.00 | 65 | 1012.4 |
| 20260508051604 | 48 | 329 | 4.0 | 10.0 | 0.00 | 0.00 | 0.00 | 65 | 1012.4 |
| 20260508051038 | 48 | 302 | 5.0 | 10.0 | 0.00 | 0.00 | 0.00 | 67 | 1012.5 |
| 20260508050541 | 47 | 329 | 6.0 | 10.0 | 0.00 | 0.00 | 0.00 | 69 | 1012.3 |
| 20260508050054 | 45 | 315 | 5.0 | 10.0 | 0.00 | 0.00 | 0.00 | 73 | 1012.3 |
| 20260508045541 | 43 | 325 | 5.0 | 11.0 | 0.00 | 0.00 | 0.00 | 79 | 1012.3 |
| 20260508045042 | 43 | 325 | 4.0 | 11.0 | 0.00 | 0.00 | 0.00 | 81 | 1012.1 |
| 20260508044552 | 43 | 331 | 3.0 | 6.0 | 0.00 | 0.00 | 0.00 | 80 | 1012.1 |
| 20260508044043 | 44 | 305 | 1.0 | 3.0 | 0.00 | 0.00 | 0.00 | 80 | 1011.9 |
| 20260508043541 | 44 | 0 | 0.0 | 3.0 | 0.00 | 0.00 | 0.00 | 79 | 1011.7 |
| 20260508043054 | 44 | 0 | 0.0 | 3.0 | 0.00 | 0.00 | 0.00 | 78 | 1011.6 |
| 20260508042541 | 44 | 298 | 1.0 | 3.0 | 0.00 | 0.00 | 0.00 | 78 | 1011.8 |
| 20260508042041 | 45 | 0 | 0.0 | 4.0 | 0.00 | 0.00 | 0.00 | 77 | 1011.7 |
| 20260508041547 | 45 | 296 | 1.0 | 6.0 | 0.00 | 0.00 | 0.00 | 75 | 1011.6 |
| 20260508041044 | 46 | 295 | 2.0 | 6.0 | 0.00 | 0.00 | 0.00 | 72 | 1011.4 |
| 20260508040541 | 48 | 292 | 2.0 | 6.0 | 0.00 | 0.00 | 0.00 | 68 | 1011.4 |
| 20260508040053 | 51 | 266 | 1.0 | 7.0 | 0.00 | 0.00 | 0.00 | 62 | 1011.3 |
| 20260508035540 | 52 | 268 | 3.0 | 7.0 | 0.00 | 0.00 | 0.00 | 56 | 1011.2 |
| 20260508035038 | 51 | 291 | 4.0 | 7.0 | 0.00 | 0.00 | 0.00 | 57 | 1011.1 |
| 20260508034548 | 51 | 299 | 3.0 | 8.0 | 0.00 | 0.00 | 0.00 | 58 | 1011.0 |
| 20260508034037 | 51 | 297 | 4.0 | 8.0 | 0.00 | 0.00 | 0.00 | 59 | 1011.0 |
| 20260508033537 | 51 | 301 | 4.0 | 8.0 | 0.00 | 0.00 | 0.00 | 59 | 1010.9 |
| 20260508033044 | 51 | 290 | 5.0 | 8.0 | 0.00 | 0.00 | 0.00 | 58 | 1010.9 |
| 20260508032538 | 51 | 289 | 3.0 | 7.0 | 0.00 | 0.00 | 0.00 | 58 | 1010.8 |
| 20260508032042 | 51 | 286 | 3.0 | 7.0 | 0.00 | 0.00 | 0.00 | 58 | 1010.7 |
| 20260508031552 | 51 | 281 | 4.0 | 7.0 | 0.00 | 0.00 | 0.00 | 58 | 1010.8 |
| 20260508031041 | 52 | 296 | 4.0 | 9.0 | 0.00 | 0.00 | 0.00 | 58 | 1010.7 |
| 20260508030541 | 52 | 298 | 4.0 | 9.0 | 0.00 | 0.00 | 0.00 | 57 | 1010.7 |
| 20260508030049 | 52 | 296 | 4.0 | 9.0 | 0.00 | 0.00 | 0.00 | 56 | 1010.6 |
| 20260508025542 | 53 | 296 | 5.0 | 9.0 | 0.00 | 0.00 | 0.00 | 55 | 1010.6 |
| 20260508025041 | 52 | 314 | 4.0 | 10.0 | 0.00 | 0.00 | 0.00 | 56 | 1010.5 |
| 20260508024555 | 53 | 292 | 4.0 | 10.0 | 0.00 | 0.00 | 0.00 | 55 | 1010.6 |
| 20260508024042 | 53 | 284 | 5.0 | 10.0 | 0.00 | 0.00 | 0.00 | 55 | 1010.5 |
| 20260508023541 | 53 | 299 | 4.0 | 8.0 | 0.00 | 0.00 | 0.00 | 56 | 1010.5 |
| 20260508023045 | 52 | 270 | 3.0 | 7.0 | 0.00 | 0.00 | 0.00 | 58 | 1010.6 |
| 20260508022540 | 52 | 281 | 5.0 | 7.0 | 0.00 | 0.00 | 0.00 | 58 | 1010.6 |
| 20260508022041 | 53 | 294 | 4.0 | 7.0 | 0.00 | 0.00 | 0.00 | 56 | 1010.5 |
| 20260508021551 | 53 | 288 | 3.0 | 8.0 | 0.00 | 0.00 | 0.00 | 55 | 1010.3 |
| 20260508021040 | 53 | 290 | 3.0 | 8.0 | 0.00 | 0.00 | 0.00 | 55 | 1010.3 |
| 20260508020542 | 53 | 271 | 3.0 | 7.0 | 0.00 | 0.00 | 0.00 | 55 | 1010.2 |
| 20260508020100 | 54 | 275 | 3.0 | 7.0 | 0.00 | 0.00 | 0.00 | 55 | 1010.1 |
| 20260508015543 | 54 | 290 | 1.0 | 5.0 | 0.00 | 0.00 | 0.00 | 55 | 1010.1 |
| 20260508015040 | 54 | 292 | 2.0 | 5.0 | 0.00 | 0.00 | 0.00 | 54 | 1010.1 |
| 20260508014552 | 54 | 292 | 3.0 | 8.0 | 0.00 | 0.00 | 0.00 | 54 | 1010.1 |
| 20260508014043 | 54 | 293 | 5.0 | 10.0 | 0.00 | 0.00 | 0.00 | 55 | 1010.0 |
| 20260508013541 | 53 | 284 | 6.0 | 11.0 | 0.00 | 0.00 | 0.00 | 58 | 1009.9 |
| 20260508013050 | 50 | 305 | 7.0 | 11.0 | 0.00 | 0.00 | 0.00 | 64 | 1009.8 |
| 20260508012545 | 50 | 288 | 0.0 | 3.0 | 0.00 | 0.00 | 0.00 | 68 | 1009.8 |
| 20260508012041 | 51 | 0 | 0.0 | 1.0 | 0.00 | 0.00 | 0.00 | 67 | 1009.6 |
| 20260508011557 | 51 | 0 | 0.0 | 1.0 | 0.00 | 0.00 | 0.00 | 66 | 1009.6 |
| 20260508011041 | 52 | 0 | 0.0 | 3.0 | 0.00 | 0.00 | 0.00 | 65 | 1009.4 |
| 20260508010541 | 53 | 0 | 0.0 | 3.0 | 0.00 | 0.00 | 0.00 | 62 | 1009.4 |
| 20260508010048 | 54 | 288 | 1.0 | 5.0 | 0.00 | 0.00 | 0.00 | 60 | 1009.4 |